EW9309 Weather Reports


Display with metric or nautical units.
time (UTC)temp
F
wind
direction
speed
MPH
gust
MPH
rain 1hr
in
rain 24hr
in
rain mn
in
humidity
%
barometer
mb
20190326035055 70 262 0.0 0.0 0.00 0.00 0.00 29 1017.5
20190326034648 71 262 0.0 0.0 0.00 0.00 0.00 29 1017.5
20190326034055 71 262 0.0 0.0 0.00 0.00 0.00 28 1017.4
20190326033555 71 262 0.0 0.0 0.00 0.00 0.00 27 1017.4
20190326033219 71 262 0.0 0.0 0.00 0.00 0.00 26 1017.4
20190326032558 71 262 0.0 0.0 0.00 0.00 0.00 27 1017.3
20190326032053 71 262 0.0 0.0 0.00 0.00 0.00 27 1017.3
20190326031623 72 262 0.0 0.0 0.00 0.00 0.00 28 1017.2
20190326031053 72 262 0.0 2.0 0.00 0.00 0.00 28 1017.2
20190326030558 72 262 0.0 3.0 0.00 0.00 0.00 27 1017.2
20190326030005 73 262 1.0 3.0 0.00 0.00 0.00 26 1017.3
20190326025557 73 262 1.0 3.0 0.00 0.00 0.00 26 1017.2
20190326025057 74 264 1.0 3.0 0.00 0.00 0.00 26 1017.2
20190326024637 74 264 0.0 4.0 0.00 0.00 0.00 25 1017.2
20190326024052 74 264 2.0 4.0 0.00 0.00 0.00 25 1017.2
20190326023552 74 269 1.0 4.0 0.00 0.00 0.00 26 1017.1
20190326023149 74 288 1.0 4.0 0.00 0.00 0.00 25 1017.1
20190326022552 75 294 2.0 4.0 0.00 0.00 0.00 25 1017.1
20190326021712 76 280 2.0 8.0 0.00 0.00 0.00 25 1017.0
20190326021054 76 284 2.0 8.0 0.00 0.00 0.00 24 1017.1
20190326020549 77 284 2.0 8.0 0.00 0.00 0.00 24 1017.0
20190326020142 77 282 3.0 8.0 0.00 0.00 0.00 23 1017.0
20190326015549 78 279 3.0 7.0 0.00 0.00 0.00 22 1017.0
20190326015048 78 278 4.0 7.0 0.00 0.00 0.00 22 1016.9
20190326014715 79 284 2.0 5.0 0.00 0.00 0.00 21 1016.9
20190326014048 79 276 2.0 6.0 0.00 0.00 0.00 21 1016.9
20190326013549 80 271 3.0 6.0 0.00 0.00 0.00 20 1016.9
20190326013127 80 288 3.0 7.0 0.00 0.00 0.00 19 1016.9
20190326012550 80 284 3.0 7.0 0.00 0.00 0.00 19 1016.9
20190326012051 81 275 3.0 7.0 0.00 0.00 0.00 18 1017.0
20190326011602 81 279 2.0 7.0 0.00 0.00 0.00 20 1016.9
20190326011046 81 281 2.0 8.0 0.00 0.00 0.00 19 1016.9
20190326010546 81 284 3.0 8.0 0.00 0.00 0.00 18 1016.9
20190326010116 82 284 4.0 8.0 0.00 0.00 0.00 18 1016.9
20190326005549 82 289 3.0 7.0 0.00 0.00 0.00 18 1017.0
20190326005048 83 273 3.0 8.0 0.00 0.00 0.00 18 1016.9
20190326004652 83 309 3.0 8.0 0.00 0.00 0.00 17 1017.0
20190326004046 83 249 2.0 9.0 0.00 0.00 0.00 17 1017.0
20190326003544 83 277 3.0 10.0 0.00 0.00 0.00 16 1017.0
20190326003148 84 282 5.0 10.0 0.00 0.00 0.00 16 1017.0
20190326002544 84 265 2.0 7.0 0.00 0.00 0.00 15 1017.0
20190326002045 84 278 2.0 8.0 0.00 0.00 0.00 14 1017.0
20190326001752 84 272 3.0 8.0 0.00 0.00 0.00 15 1017.0
20190326001044 85 299 4.0 7.0 0.00 0.00 0.00 15 1017.0
20190326000544 85 281 3.0 8.0 0.00 0.00 0.00 15 1017.1
20190326000214 86 245 2.0 9.0 0.00 0.00 0.00 14 1017.1
20190325235542 86 235 2.0 9.0 0.00 0.00 0.00 13 1017.1
20190325235042 86 257 1.0 5.0 0.00 0.00 0.00 13 1017.1
20190325234609 86 267 1.0 4.0 0.00 0.00 0.00 13 1017.1
20190325234044 86 250 2.0 7.0 0.00 0.00 0.00 13 1017.2
20190325233542 87 221 3.0 7.0 0.00 0.00 0.00 12 1017.3
20190325233113 87 237 2.0 8.0 0.00 0.00 0.00 13 1017.3
20190325232539 87 138 1.0 8.0 0.00 0.00 0.00 12 1017.4
20190325232039 87 105 0.0 6.0 0.00 0.00 0.00 12 1017.4
20190325231543 86 222 2.0 6.0 0.00 0.00 0.00 13 1017.5
20190325231037 87 248 1.0 4.0 0.00 0.00 0.00 13 1017.4
20190325230542 87 269 1.0 3.0 0.00 0.00 0.00 15 1017.5
20190325230113 86 265 1.0 5.0 0.00 0.00 0.00 14 1017.6
20190325225535 86 279 3.0 6.0 0.00 0.00 0.00 14 1017.6
20190325225040 87 173 1.0 8.0 0.00 0.00 0.00 12 1017.7
20190325224546 87 172 3.0 8.0 0.00 0.00 0.00 13 1017.7
20190325224034 87 136 2.0 5.0 0.00 0.00 0.00 14 1017.6
20190325223536 87 244 1.0 5.0 0.00 0.00 0.00 13 1017.7
20190325223120 87 254 2.0 5.0 0.00 0.00 0.00 13 1017.7
20190325222531 85 249 1.0 5.0 0.00 0.00 0.00 13 1017.8
20190325222032 85 242 0.0 3.0 0.00 0.00 0.00 13 1017.8
20190325221559 85 249 1.0 4.0 0.00 0.00 0.00 13 1018.0
20190325221030 85 263 2.0 6.0 0.00 0.00 0.00 15 1018.1
20190325220528 86 262 2.0 6.0 0.00 0.00 0.00 14 1018.2
20190325220104 86 253 2.0 5.0 0.00 0.00 0.00 14 1018.1
20190325215532 85 227 1.0 7.0 0.00 0.00 0.00 13 1018.2
20190325215033 86 169 3.0 7.0 0.00 0.00 0.00 14 1018.3
20190325214533 86 9 1.0 8.0 0.00 0.00 0.00 13 1018.3
20190325214027 85 208 2.0 5.0 0.00 0.00 0.00 15 1018.4
20190325213527 87 184 2.0 6.0 0.00 0.00 0.00 15 1018.5
20190325213028 86 229 2.0 6.0 0.00 0.00 0.00 15 1018.6
20190325212525 86 173 1.0 4.0 0.00 0.00 0.00 17 1018.7
20190325212022 85 273 2.0 4.0 0.00 0.00 0.00 16 1018.7
20190325211527 84 287 1.0 4.0 0.00 0.00 0.00 18 1018.8
20190325211019 85 279 2.0 5.0 0.00 0.00 0.00 16 1018.9
20190325210523 84 248 3.0 5.0 0.00 0.00 0.00 17 1018.9
20190325210051 83 307 2.0 5.0 0.00 0.00 0.00 17 1019.1
20190325205521 83 10 1.0 5.0 0.00 0.00 0.00 16 1019.1
20190325205020 83 249 2.0 5.0 0.00 0.00 0.00 17 1019.3
20190325204536 84 281 3.0 5.0 0.00 0.00 0.00 18 1019.4
20190325204014 83 284 1.0 7.0 0.00 0.00 0.00 18 1019.5
20190325203520 83 261 2.0 6.0 0.00 0.00 0.00 18 1019.6
20190325203020 83 265 1.0 6.0 0.00 0.00 0.00 18 1019.8
20190325202512 81 254 1.0 5.0 0.00 0.00 0.00 20 1019.8
20190325202009 82 248 2.0 5.0 0.00 0.00 0.00 17 1020.0
20190325201515 83 261 2.0 7.0 0.00 0.00 0.00 18 1020.0
20190325201010 83 200 1.0 7.0 0.00 0.00 0.00 18 1020.2
20190325200509 82 232 1.0 6.0 0.00 0.00 0.00 19 1020.3
20190325200006 82 271 2.0 8.0 0.00 0.00 0.00 18 1020.4
20190325195504 83 116 4.0 8.0 0.00 0.00 0.00 18 1020.5
20190325195006 82 305 1.0 7.0 0.00 0.00 0.00 16 1020.6
20190325194503 82 89 2.0 7.0 0.00 0.00 0.00 17 1020.8
20190325194004 81 23 2.0 5.0 0.00 0.00 0.00 18 1020.9
20190325193602 80 34 1.0 5.0 0.00 0.00 0.00 18 1020.9
20190325193157 80 247 1.0 5.0 0.00 0.00 0.00 17 1020.9
20190325192604 82 179 2.0 5.0 0.00 0.00 0.00 20 1021.0
20190325192058 80 150 1.0 5.0 0.00 0.00 0.00 20 1021.1
20190325191759 81 126 2.0 5.0 0.00 0.00 0.00 19 1021.2
20190325191058 79 47 1.0 4.0 0.00 0.00 0.00 23 1021.3
20190325190554 80 20 2.0 4.0 0.00 0.00 0.00 19 1021.4
20190325190204 79 76 1.0 6.0 0.00 0.00 0.00 20 1021.4
20190325185558 78 99 0.0 6.0 0.00 0.00 0.00 19 1021.5
20190325185051 78 123 2.0 6.0 0.00 0.00 0.00 21 1021.5
20190325184714 77 22 3.0 6.0 0.00 0.00 0.00 21 1021.6
20190325184055 77 11 2.0 5.0 0.00 0.00 0.00 22 1021.7
20190325183549 77 17 1.0 6.0 0.00 0.00 0.00 24 1021.7
20190325183154 77 84 2.0 8.0 0.00 0.00 0.00 23 1021.8
20190325182551 77 90 2.0 8.0 0.00 0.00 0.00 25 1021.8
20190325182051 75 245 2.0 6.0 0.00 0.00 0.00 27 1021.9
20190325181557 75 216 3.0 6.0 0.00 0.00 0.00 26 1022.0
20190325181043 75 227 1.0 6.0 0.00 0.00 0.00 27 1022.0
20190325180550 76 155 2.0 6.0 0.00 0.00 0.00 26 1022.2
20190325180057 76 178 2.0 5.0 0.00 0.00 0.00 26 1022.2
20190325175541 75 182 2.0 5.0 0.00 0.00 0.00 28 1022.3
20190325175041 75 175 0.0 5.0 0.00 0.00 0.00 27 1022.4
20190325174631 74 159 2.0 5.0 0.00 0.00 0.00 28 1022.4
20190325174038 74 163 1.0 6.0 0.00 0.00 0.00 26 1022.5
20190325173539 74 157 1.0 6.0 0.00 0.00 0.00 28 1022.6
20190325173140 73 90 0.0 6.0 0.00 0.00 0.00 27 1022.6
20190325172537 74 88 3.0 6.0 0.00 0.00 0.00 26 1022.7
20190325172044 74 87 1.0 6.0 0.00 0.00 0.00 28 1022.7
20190325171639 73 84 2.0 8.0 0.00 0.00 0.00 28 1022.8
20190325171037 72 87 3.0 8.0 0.00 0.00 0.00 29 1022.8
20190325170537 71 59 1.0 6.0 0.00 0.00 0.00 30 1022.9
20190325170204 71 44 2.0 6.0 0.00 0.00 0.00 29 1022.9
20190325165529 71 107 2.0 6.0 0.00 0.00 0.00 29 1022.9
20190325165034 71 65 1.0 5.0 0.00 0.00 0.00 32 1022.9
20190325164632 70 67 1.0 6.0 0.00 0.00 0.00 32 1023.0
20190325164032 70 79 3.0 6.0 0.00 0.00 0.00 31 1023.0
20190325163525 69 62 2.0 7.0 0.00 0.00 0.00 31 1022.9
20190325163054 69 144 2.0 6.0 0.00 0.00 0.00 32 1023.0
20190325162525 68 91 3.0 7.0 0.00 0.00 0.00 32 1022.9
20190325162022 68 106 2.0 6.0 0.00 0.00 0.00 33 1022.9
20190325161540 68 76 2.0 6.0 0.00 0.00 0.00 34 1022.9
20190325161026 67 69 3.0 8.0 0.00 0.00 0.00 35 1022.9
20190325160518 66 61 4.0 8.0 0.00 0.00 0.00 35 1022.9
20190325160021 65 69 3.0 6.0 0.00 0.00 0.00 37 1022.9
20190325155516 63 88 0.0 0.0 0.00 0.00 0.00 45 1022.9
20190325155015 62 88 0.0 0.0 0.00 0.00 0.00 48 1022.8
20190325154537 60 92 0.0 0.0 0.00 0.00 0.00 49 1022.8
20190325154012 60 92 0.0 0.0 0.00 0.00 0.00 49 1022.9
20190325153511 60 90 0.0 0.0 0.00 0.00 0.00 51 1022.8
20190325153016 59 90 0.0 0.0 0.00 0.00 0.00 54 1022.9
20190325152508 58 90 0.0 0.0 0.00 0.00 0.00 54 1022.8
20190325152009 58 90 0.0 0.0 0.00 0.00 0.00 55 1022.8
20190325151515 57 89 0.0 0.0 0.00 0.00 0.00 56 1022.8
20190325151008 57 89 0.0 0.0 0.00 0.00 0.00 57 1022.7
20190325150510 56 89 0.0 0.0 0.00 0.00 0.00 58 1022.7
20190325150013 55 88 0.0 0.0 0.00 0.00 0.00 58 1022.7
20190325145506 55 88 0.0 0.0 0.00 0.00 0.00 59 1022.7
20190325145005 54 88 0.0 0.0 0.00 0.00 0.00 60 1022.6
20190325144505 53 88 0.0 0.0 0.00 0.00 0.00 61 1022.6
20190325144004 52 102 0.0 0.0 0.00 0.00 0.00 62 1022.6
20190325143503 52 98 0.0 0.0 0.00 0.00 0.00 62 1022.6
20190325143032 51 98 0.0 0.0 0.00 0.00 0.00 62 1022.5
20190325142502 51 96 0.0 0.0 0.00 0.00 0.00 62 1022.5
20190325142003 50 95 0.0 0.0 0.00 0.00 0.00 62 1022.5
20190325141505 50 95 0.0 0.0 0.00 0.00 0.00 62 1022.4
20190325141004 50 89 0.0 0.0 0.00 0.00 0.00 62 1022.3
20190325140503 49 88 0.0 0.0 0.00 0.00 0.00 62 1022.3
20190325140008 49 88 0.0 0.0 0.00 0.00 0.00 62 1022.2
20190325135504 49 88 0.0 1.0 0.00 0.00 0.00 62 1022.2
20190325135000 49 88 0.0 2.0 0.00 0.00 0.00 61 1022.1
20190325134501 49 88 0.0 2.0 0.00 0.00 0.00 61 1022.1
20190325134106 49 88 1.0 2.0 0.00 0.00 0.00 61 1022.1
20190325133600 49 88 0.0 1.0 0.00 0.00 0.00 61 1022.0
20190325133209 49 88 0.0 2.0 0.00 0.00 0.00 61 1022.0
20190325132559 49 88 1.0 3.0 0.00 0.00 0.00 61 1022.0
20190325132101 49 88 1.0 3.0 0.00 0.00 0.00 60 1022.0
20190325131703 48 88 1.0 3.0 0.00 0.00 0.00 62 1022.0
20190325131058 48 88 0.0 0.0 0.00 0.00 0.00 62 1022.0
20190325130557 48 88 0.0 0.0 0.00 0.00 0.00 62 1022.0
20190325130149 48 88 0.0 0.0 0.00 0.00 0.00 62 1021.9
20190325125603 49 88 0.0 0.0 0.00 0.00 0.00 61 1022.0
20190325125101 49 88 0.0 0.0 0.00 0.00 0.00 61 1021.9
20190325124658 49 88 0.0 0.0 0.00 0.00 0.00 61 1021.9
20190325124054 49 88 0.0 0.0 0.00 0.00 0.00 61 1021.9
20190325123554 49 88 0.0 0.0 0.00 0.00 0.00 61 1021.9
20190325123215 49 88 0.0 0.0 0.00 0.00 0.00 61 1021.9
20190325122057 49 88 0.0 0.0 0.00 0.00 0.00 59 1021.8
20190325121652 49 88 0.0 0.0 0.00 0.00 0.00 59 1021.8
20190325121051 50 88 0.0 0.0 0.00 0.00 0.00 59 1021.8
20190325120550 50 88 0.0 0.0 0.00 0.00 0.00 59 1021.8
20190325120107 50 88 0.0 0.0 0.00 0.00 0.00 59 1021.8
20190325115557 50 88 0.0 0.0 0.00 0.00 0.00 59 1021.8
20190325115053 50 88 0.0 0.0 0.00 0.00 0.00 58 1021.7
20190325114641 50 88 0.0 0.0 0.00 0.00 0.00 58 1021.7
20190325114049 50 88 0.0 0.0 0.00 0.00 0.00 59 1021.7
20190325113548 50 88 0.0 0.0 0.00 0.00 0.00 59 1021.7
20190325113148 50 88 0.0 0.0 0.00 0.00 0.00 59 1021.6
20190325112547 50 88 0.0 0.0 0.00 0.00 0.00 59 1021.6
20190325112051 50 88 0.0 0.0 0.00 0.00 0.00 59 1021.6
20190325111701 50 88 0.0 0.0 0.00 0.00 0.00 59 1021.7
20190325111046 50 88 0.0 0.0 0.00 0.00 0.00 59 1021.7
20190325110546 50 88 0.0 0.0 0.00 0.00 0.00 59 1021.7
20190325110108 50 88 0.0 0.0 0.00 0.00 0.00 59 1021.8
20190325105554 50 88 0.0 1.0 0.00 0.00 0.00 59 1021.7
20190325105051 51 88 0.0 2.0 0.00 0.00 0.00 59 1021.7
20190325104611 51 88 0.0 2.0 0.00 0.00 0.00 59 1021.7
20190325104048 51 88 0.0 0.0 0.00 0.00 0.00 58 1021.7
20190325103542 51 88 0.0 0.0 0.00 0.00 0.00 58 1021.6
20190325103114 51 88 0.0 0.0 0.00 0.00 0.00 58 1021.6
20190325102545 51 88 0.0 0.0 0.00 0.00 0.00 58 1021.6
20190325102040 51 88 0.0 0.0 0.00 0.00 0.00 57 1021.6
20190325101624 52 88 0.0 0.0 0.00 0.00 0.00 57 1021.7
20190325100538 52 88 0.0 0.0 0.00 0.00 0.00 57 1021.6
20190325100121 52 88 0.0 0.0 0.00 0.00 0.00 55 1021.6
20190325095538 53 88 0.0 0.0 0.00 0.00 0.00 55 1021.7
20190325095034 53 88 0.0 0.0 0.00 0.00 0.00 54 1021.6
20190325094631 53 88 0.0 0.0 0.00 0.00 0.00 54 1021.6
20190325094032 53 88 0.0 0.0 0.00 0.00 0.00 53 1021.7
20190325093536 53 88 0.0 0.0 0.00 0.00 0.00 53 1021.7
20190325093054 54 88 0.0 0.0 0.00 0.00 0.00 53 1021.8
20190325092529 54 88 0.0 0.0 0.00 0.00 0.00 53 1021.8
20190325092029 54 88 0.0 0.0 0.00 0.00 0.00 53 1021.8
20190325091547 54 88 0.0 0.0 0.00 0.00 0.00 52 1021.9
20190325091028 54 88 0.0 0.0 0.00 0.00 0.00 52 1021.9
20190325090527 55 88 0.0 0.0 0.00 0.00 0.00 52 1021.9
20190325090043 55 88 0.0 0.0 0.00 0.00 0.00 51 1021.9
20190325085525 55 88 0.0 0.0 0.00 0.00 0.00 51 1021.9
20190325085023 55 88 0.0 0.0 0.00 0.00 0.00 50 1021.9
20190325084613 56 88 0.0 0.0 0.00 0.00 0.00 50 1022.0
20190325084022 56 88 0.0 0.0 0.00 0.00 0.00 49 1022.0
20190325083521 56 88 0.0 0.0 0.00 0.00 0.00 48 1022.0
20190325083047 56 88 0.0 0.0 0.00 0.00 0.00 48 1022.1
20190325082520 56 88 0.0 0.0 0.00 0.00 0.00 48 1022.1
20190325082030 56 88 0.0 0.0 0.00 0.00 0.00 47 1022.2
20190325081526 57 88 0.0 3.0 0.00 0.00 0.00 47 1022.2
20190325081017 57 88 1.0 3.0 0.00 0.00 0.00 46 1022.2
20190325080517 56 88 0.0 1.0 0.00 0.00 0.00 45 1022.3
20190325080026 57 88 0.0 3.0 0.00 0.00 0.00 44 1022.4
20190325075518 57 88 1.0 3.0 0.00 0.00 0.00 45 1022.4
20190325075015 57 88 0.0 3.0 0.00 0.00 0.00 47 1022.4
20190325074542 57 88 0.0 0.0 0.00 0.00 0.00 47 1022.5
20190325074013 57 88 0.0 0.0 0.00 0.00 0.00 46 1022.4
20190325073516 57 88 0.0 2.0 0.00 0.00 0.00 46 1022.5
20190325073038 57 88 0.0 3.0 0.00 0.00 0.00 46 1022.4
20190325072517 57 88 1.0 3.0 0.00 0.00 0.00 46 1022.5
20190325072015 58 88 0.0 0.0 0.00 0.00 0.00 46 1022.5
20190325071531 58 88 0.0 0.0 0.00 0.00 0.00 46 1022.5
20190325071009 58 88 0.0 0.0 0.00 0.00 0.00 45 1022.4
20190325070509 58 88 0.0 0.0 0.00 0.00 0.00 44 1022.4
20190325070014 58 88 0.0 1.0 0.00 0.00 0.00 44 1022.4
20190325065508 58 88 0.0 2.0 0.00 0.00 0.00 44 1022.4
20190325065008 59 88 1.0 2.0 0.00 0.00 0.00 43 1022.4
20190325064509 59 88 0.0 0.0 0.00 0.00 0.00 43 1022.4
20190325064006 59 88 0.0 0.0 0.00 0.00 0.00 42 1022.4
20190325063506 59 88 0.0 0.0 0.00 0.00 0.00 43 1022.3
20190325063008 60 88 0.0 0.0 0.00 0.00 0.00 41 1022.3
20190325062507 60 88 0.0 0.0 0.00 0.00 0.00 41 1022.3
20190325062013 60 88 0.0 0.0 0.00 0.00 0.00 42 1022.4
20190325061510 60 88 0.0 0.0 0.00 0.00 0.00 41 1022.4
20190325061007 60 88 0.0 0.0 0.00 0.00 0.00 40 1022.4
20190325060512 60 88 0.0 0.0 0.00 0.00 0.00 40 1022.5
20190325060020 61 88 0.0 0.0 0.00 0.00 0.00 40 1022.4
20190325055505 61 88 0.0 0.0 0.00 0.00 0.00 40 1022.4
20190325055009 61 88 0.0 0.0 0.00 0.00 0.00 40 1022.4
20190325054633 61 88 0.0 0.0 0.00 0.00 0.00 40 1022.5
20190325054102 61 88 0.0 0.0 0.00 0.00 0.00 40 1022.5
20190325053237 61 88 0.0 0.0 0.00 0.00 0.00 41 1022.4
20190325052559 62 88 0.0 0.0 0.00 0.00 0.00 40 1022.5
20190325052059 62 88 0.0 0.0 0.00 0.00 0.00 41 1022.5
20190325051625 62 88 0.0 0.0 0.00 0.00 0.00 41 1022.5
20190325051102 62 88 0.0 0.0 0.00 0.00 0.00 40 1022.5
20190325050557 62 88 0.0 0.0 0.00 0.00 0.00 40 1022.5
20190325050133 62 88 0.0 0.0 0.00 0.00 0.00 40 1022.4
20190325045105 63 88 0.0 0.0 0.00 0.00 0.00 39 1022.4
20190325044655 63 88 0.0 0.0 0.00 0.00 0.00 40 1022.4
20190325044503 63 89 0.0 0.0 0.00 0.00 0.00 39 1022.4
20190325044057 63 88 0.0 0.0 0.00 0.00 0.00 39 1022.4
20190325043557 63 88 0.0 0.0 0.00 0.00 0.00 39 1022.3
20190325043206 63 88 0.0 0.0 0.00 0.00 0.00 38 1022.2
20190325042559 63 88 0.0 1.0 0.00 0.00 0.00 40 1022.2
20190325042103 63 88 0.0 1.0 0.00 0.00 0.00 39 1022.2
20190325041646 64 88 0.0 0.0 0.00 0.00 0.00 38 1022.1
20190325041100 64 88 0.0 0.0 0.00 0.00 0.00 39 1022.2
20190325040600 64 88 0.0 2.0 0.00 0.00 0.00 37 1022.1
20190325040153 65 88 0.0 3.0 0.00 0.00 0.00 36 1022.1